User: anonymous   Login
Location: Unspecified
(0.0000°N, 0.0000°E)
Time: 06:49:52
(UTC+02:00)
Language:

ARIANE 5 R/B - Orbit

View from above orbital plane
View from above orbital plane
View from above satellite
View from above satellite

Ground track
Ground track

The orbit data is extracted from the following two-line orbital elements,

1 28886U 05041C   17203.77757638 -.00000153 +00000-0 +20615-3 0  9992
2 28886 008.2782 350.1751 7196937 123.1585 295.5060 02.24338017096462
Epoch (UTC): 22 July 2017 18:39:42
Eccentricity: 0.7196937
inclination: 8.2782°
perigee height: 531 km
apogee height: 36010 km
right ascension of ascending node: 350.1751°
argument of perigee: 123.1585°
revolutions per day: 2.24338017
mean anomaly at epoch: 295.5060°
orbit number at epoch: 9646

The dashed part of the orbit path shows where the satellite is in the earth's shadow,  

DLR